Location: Abbey Hill
(34.0751°N, 84.0688°W)
Time: 19:38:40
(UTC+00:00)

ISS - Visible Passes

Search period start: 25 September 2021 00:00
Search period end: 05 October 2021 00:00
Orbit: 417 x 423 km, 51.6° (Epoch: 25 September)

Date Brightness Start Highest point End Pass type
(mag) Time Alt. Az. Time Alt. Az. Time Alt. Az.
02 Oct -1.2 00:36:41 10° N 00:37:41 11° NNE 00:37:41 11° NNE visible
03 Oct -1.0 01:24:33 10° NNW 01:25:20 16° NNW 01:25:20 16° NNW visible
04 Oct -2.3 00:37:31 10° NNW 00:40:05 25° NNE 00:40:05 25° NNE visible
04 Oct -1.8 23:50:40 10° N 23:52:55 16° NNE 23:54:56 11° ENE visible
